Location: Potomac
(46.8816°N, 113.5795°W)
Time: 08:39:08
(UTC+00:00)

MOZHAYETS 4 - Visible Passes

Search period start: 25 June 2022 00:00
Search period end: 05 July 2022 00:00
Orbit: 660 x 678 km, 98.2° (Epoch: 24 June)

Date Brightness Start Highest point End Pass type
(mag) Time Alt. Az. Time Alt. Az. Time Alt. Az.
25 Jun 9.0 09:10:43 10° SE 09:15:00 39° ENE 09:19:19 10° N visible
25 Jun 8.9 10:48:23 10° SSW 10:52:12 25° W 10:56:02 10° NW visible
26 Jun 10.6 08:09:36 10° ENE 08:11:07 12° NE 08:12:39 10° NE visible
26 Jun 7.8 09:42:48 10° SSE 09:47:25 79° ENE 09:52:04 10° NNW visible
27 Jun 10.0 08:39:47 10° ESE 08:43:15 21° ENE 08:46:42 10° NNE visible
27 Jun 8.0 10:15:39 11° S 10:19:59 50° W 10:24:30 10° NNW visible
28 Jun 9.0 09:11:13 10° SE 09:15:31 40° ENE 09:19:49 10° N visible
28 Jun 8.9 10:48:54 10° SSW 10:52:42 25° W 10:56:32 10° NW visible
29 Jun 10.6 08:10:05 10° ENE 08:11:37 12° NE 08:13:10 10° NE visible
29 Jun 7.8 09:43:19 10° SSE 09:47:56 80° ENE 09:52:34 10° NNW visible
30 Jun 10.0 08:40:17 10° ESE 08:43:45 21° ENE 08:47:12 10° NNE visible
30 Jun 8.0 10:16:14 11° S 10:20:29 50° W 10:24:59 10° NNW visible
01 Jul 9.0 09:11:43 10° SE 09:16:00 40° ENE 09:20:18 10° N visible
01 Jul 8.9 10:49:25 10° SSW 10:53:12 25° W 10:57:01 10° NW visible
02 Jul 10.5 08:10:33 10° ENE 08:12:06 12° NE 08:13:40 10° NE visible
02 Jul 7.8 09:43:54 10° SSE 09:48:25 80° ENE 09:53:02 10° NNW visible
03 Jul 10.0 08:40:46 10° ESE 08:44:13 21° ENE 08:47:41 10° NNE visible
03 Jul 8.0 10:16:49 12° S 10:20:58 50° W 10:25:28 10° NNW visible
04 Jul 8.9 09:12:12 10° SE 09:16:29 40° ENE 09:20:46 10° N visible
04 Jul 8.9 10:49:55 10° SSW 10:53:41 25° W 10:57:28 10° NW visible
